Time,TemperatureF,DewpointF,PressureIn,WindDirection,WindDirectionDegrees,WindSpeedMPH,WindSpeedGustMPH,Humidity,HourlyPrecipIn,Conditions,Clouds,dailyrainin,SoftwareType,DateUTC
2013-02-10 00:04:00,38.1,29.8,30.03,North,0,0.0,0.0,72,0.00,,,0.00,meteohub,2013-02-10 08:04:00,
2013-02-10 00:10:00,38.1,29.8,30.02,North,0,0.0,0.0,72,0.00,,,0.00,meteohub,2013-02-10 08:10:00,
2013-02-10 00:15:00,37.9,29.7,30.03,East,90,0.0,0.0,72,0.00,,,0.00,meteohub,2013-02-10 08:15:00,
2013-02-10 00:20:00,37.9,29.7,30.03,East,90,0.0,0.0,72,0.00,,,0.00,meteohub,2013-02-10 08:20:00,
2013-02-10 00:25:00,37.8,29.5,30.03,East,90,0.0,0.0,72,0.00,,,0.00,meteohub,2013-02-10 08:25:00,
2013-02-10 00:30:00,37.8,29.8,30.03,East,90,0.0,0.0,73,0.00,,,0.00,meteohub,2013-02-10 08:30:00,
2013-02-10 00:35:00,37.6,29.7,30.03,East,90,0.0,0.0,73,0.00,,,0.00,meteohub,2013-02-10 08:35:00,
2013-02-10 00:40:00,37.6,29.7,30.03,East,90,0.0,0.0,73,0.00,,,0.00,meteohub,2013-02-10 08:40:00,
2013-02-10 00:45:00,37.4,29.5,30.03,East,90,0.0,0.0,73,0.00,,,0.00,meteohub,2013-02-10 08:45:00,
2013-02-10 00:50:00,37.4,29.8,30.03,East,90,0.0,0.0,74,0.00,,,0.00,meteohub,2013-02-10 08:50:00,
2013-02-10 00:55:00,37.2,29.7,30.03,East,90,0.0,1.0,74,0.00,,,0.00,meteohub,2013-02-10 08:55:00,
2013-02-10 01:00:00,37.2,29.7,30.03,East,90,1.0,1.0,74,0.00,,,0.00,meteohub,2013-02-10 09:00:00,
2013-02-10 01:05:00,37.2,29.7,30.03,East,90,1.0,1.0,74,0.00,,,0.00,meteohub,2013-02-10 09:05:00,
2013-02-10 01:10:00,36.9,29.3,30.03,East,90,0.0,1.0,74,0.00,,,0.00,meteohub,2013-02-10 09:10:00,
2013-02-10 01:15:00,36.7,29.1,30.03,East,90,0.0,1.0,74,0.00,,,0.00,meteohub,2013-02-10 09:15:00,
2013-02-10 01:21:00,36.7,29.5,30.03,East,90,0.0,1.0,75,0.00,,,0.00,meteohub,2013-02-10 09:21:00,
2013-02-10 01:26:00,36.5,29.3,30.03,East,90,0.0,0.0,75,0.00,,,0.00,meteohub,2013-02-10 09:26:00,
2013-02-10 01:31:00,36.3,29.1,30.02,East,90,0.0,0.0,75,0.00,,,0.00,meteohub,2013-02-10 09:31:00,
2013-02-10 01:36:00,36.1,28.9,30.03,East,90,0.0,0.0,75,0.00,,,0.00,meteohub,2013-02-10 09:36:00,
2013-02-10 01:41:00,36.0,29.1,30.03,East,90,0.0,0.0,76,0.00,,,0.00,meteohub,2013-02-10 09:41:00,
2013-02-10 01:46:00,35.8,28.9,30.03,East,90,0.0,0.0,76,0.00,,,0.00,meteohub,2013-02-10 09:46:00,
2013-02-10 01:51:00,35.6,28.8,30.03,SW,225,2.0,2.0,76,0.00,,,0.00,meteohub,2013-02-10 09:51:00,
2013-02-10 01:56:00,35.2,28.0,30.04,SW,225,0.0,2.0,75,0.00,,,0.00,meteohub,2013-02-10 09:56:00,
2013-02-10 02:01:00,35.1,27.9,30.03,SW,225,0.0,2.0,75,0.00,,,0.00,meteohub,2013-02-10 10:01:00,
2013-02-10 02:06:00,35.1,27.9,30.03,SW,225,0.0,2.0,75,0.00,,,0.00,meteohub,2013-02-10 10:06:00,
2013-02-10 02:11:00,32.9,26.2,30.04,West,270,1.0,0.0,76,0.00,,,0.00,meteohub,2013-02-10 10:11:00,
2013-02-10 02:16:00,34.5,28.0,30.04,West,270,0.0,1.0,77,0.00,,,0.00,meteohub,2013-02-10 10:16:00,
2013-02-10 02:21:00,34.5,28.0,30.04,West,270,0.0,1.0,77,0.00,,,0.00,meteohub,2013-02-10 10:21:00,
2013-02-10 02:26:00,34.3,27.9,30.03,West,270,1.0,1.0,77,0.00,,,0.00,meteohub,2013-02-10 10:26:00,
2013-02-10 02:31:00,34.3,27.9,30.04,West,270,0.0,1.0,77,0.00,,,0.00,meteohub,2013-02-10 10:31:00,
2013-02-10 02:36:00,34.2,27.7,30.04,West,270,0.0,1.0,77,0.00,,,0.00,meteohub,2013-02-10 10:36:00,
2013-02-10 02:42:00,34.2,28.0,30.04,West,270,0.0,1.0,78,0.00,,,0.00,meteohub,2013-02-10 10:42:00,
2013-02-10 02:47:00,34.2,28.0,30.04,West,270,0.0,2.0,78,0.00,,,0.00,meteohub,2013-02-10 10:47:00,
2013-02-10 02:52:00,34.0,27.9,30.04,West,270,0.0,2.0,78,0.00,,,0.00,meteohub,2013-02-10 10:52:00,
2013-02-10 02:57:00,34.0,28.2,30.04,West,270,0.0,1.0,79,0.00,,,0.00,meteohub,2013-02-10 10:57:00,
2013-02-10 03:02:00,34.0,28.2,30.03,West,270,0.0,1.0,79,0.00,,,0.00,meteohub,2013-02-10 11:02:00,
2013-02-10 03:07:00,34.0,28.2,30.04,West,270,0.0,1.0,79,0.00,,,0.00,meteohub,2013-02-10 11:07:00,
2013-02-10 03:12:00,33.8,28.0,30.04,West,270,0.0,1.0,79,0.00,,,0.00,meteohub,2013-02-10 11:12:00,
2013-02-10 03:17:00,33.8,28.2,30.04,West,270,0.0,2.0,80,0.00,,,0.00,meteohub,2013-02-10 11:17:00,
2013-02-10 03:22:00,33.6,28.0,30.04,West,270,0.0,2.0,80,0.00,,,0.00,meteohub,2013-02-10 11:22:00,
2013-02-10 03:27:00,33.6,28.0,30.03,West,270,0.0,2.0,80,0.00,,,0.00,meteohub,2013-02-10 11:27:00,
2013-02-10 03:32:00,33.6,28.0,30.04,NW,315,0.0,2.0,80,0.00,,,0.00,meteohub,2013-02-10 11:32:00,
2013-02-10 03:37:00,33.6,28.0,30.04,NW,315,0.0,2.0,80,0.00,,,0.00,meteohub,2013-02-10 11:37:00,
2013-02-10 03:42:00,33.6,28.0,30.03,NW,315,2.0,2.0,80,0.00,,,0.00,meteohub,2013-02-10 11:42:00,
2013-02-10 03:47:00,33.6,28.0,30.03,NW,315,0.0,2.0,80,0.00,,,0.00,meteohub,2013-02-10 11:47:00,
2013-02-10 03:52:00,33.6,28.0,30.03,NW,315,0.0,2.0,80,0.00,,,0.00,meteohub,2013-02-10 11:52:00,
2013-02-10 03:57:00,33.4,27.9,30.03,NW,315,0.0,2.0,80,0.00,,,0.00,meteohub,2013-02-10 11:57:00,
2013-02-10 04:02:00,33.4,28.2,30.04,NW,315,1.0,1.0,81,0.00,,,0.00,meteohub,2013-02-10 12:02:00,
2013-02-10 04:07:00,33.4,28.2,30.04,NW,315,1.0,1.0,81,0.00,,,0.00,meteohub,2013-02-10 12:07:00,
2013-02-10 04:12:00,33.3,28.0,30.04,NW,315,2.0,2.0,81,0.00,,,0.00,meteohub,2013-02-10 12:12:00,
2013-02-10 04:17:00,33.3,28.0,30.04,NW,315,2.0,2.0,81,0.00,,,0.00,meteohub,2013-02-10 12:17:00,
2013-02-10 04:22:00,33.1,27.9,30.04,North,0,1.0,2.0,81,0.00,,,0.00,meteohub,2013-02-10 12:22:00,
2013-02-10 04:27:00,32.9,27.7,30.05,North,0,1.0,2.0,81,0.00,,,0.00,meteohub,2013-02-10 12:27:00,
2013-02-10 04:32:00,32.9,27.7,30.04,North,0,1.0,2.0,81,0.00,,,0.00,meteohub,2013-02-10 12:32:00,
2013-02-10 04:37:00,32.7,27.9,30.05,North,0,2.0,2.0,82,0.00,,,0.00,meteohub,2013-02-10 12:37:00,
2013-02-10 04:42:00,32.7,27.9,30.05,North,0,2.0,2.0,82,0.00,,,0.00,meteohub,2013-02-10 12:42:00,
2013-02-10 04:47:00,32.7,27.9,30.05,NE,45,2.0,2.0,82,0.00,,,0.00,meteohub,2013-02-10 12:47:00,
2013-02-10 04:52:00,32.7,28.2,30.05,North,0,2.0,2.0,83,0.00,,,0.00,meteohub,2013-02-10 12:52:00,
2013-02-10 04:57:00,32.7,28.2,30.05,NE,45,2.0,2.0,83,0.00,,,0.00,meteohub,2013-02-10 12:57:00,
2013-02-10 05:02:00,32.7,28.2,30.05,North,0,1.0,2.0,83,0.00,,,0.00,meteohub,2013-02-10 13:02:00,
2013-02-10 05:07:00,32.7,28.2,30.05,North,0,1.0,2.0,83,0.00,,,0.00,meteohub,2013-02-10 13:07:00,
2013-02-10 05:12:00,32.7,28.2,30.05,North,0,3.0,3.0,83,0.00,,,0.00,meteohub,2013-02-10 13:12:00,
2013-02-10 05:17:00,32.7,28.2,30.05,North,0,2.0,3.0,83,0.00,,,0.00,meteohub,2013-02-10 13:17:00,
2013-02-10 05:22:00,32.9,28.2,30.05,North,0,2.0,3.0,83,0.00,,,0.00,meteohub,2013-02-10 13:22:00,
2013-02-10 05:27:00,32.9,28.2,30.06,NE,45,2.0,3.0,83,0.00,,,0.00,meteohub,2013-02-10 13:27:00,
2013-02-10 05:32:00,32.9,28.2,30.05,NE,45,2.0,2.0,83,0.00,,,0.00,meteohub,2013-02-10 13:32:00,
2013-02-10 05:37:00,33.1,28.4,30.05,NE,45,2.0,3.0,83,0.00,,,0.00,meteohub,2013-02-10 13:37:00,
2013-02-10 05:42:00,33.1,28.4,30.06,North,0,1.0,3.0,83,0.00,,,0.00,meteohub,2013-02-10 13:42:00,
2013-02-10 05:47:00,32.9,28.2,30.05,North,0,0.0,3.0,83,0.00,,,0.00,meteohub,2013-02-10 13:47:00,
2013-02-10 05:52:00,32.9,28.2,30.06,NE,45,0.0,2.0,83,0.00,,,0.00,meteohub,2013-02-10 13:52:00,
2013-02-10 05:57:00,32.9,28.2,30.06,NE,45,2.0,2.0,83,0.00,,,0.00,meteohub,2013-02-10 13:57:00,
2013-02-10 06:02:00,32.9,28.2,30.06,NE,45,1.0,2.0,83,0.00,,,0.00,meteohub,2013-02-10 14:02:00,
2013-02-10 06:07:00,32.9,28.2,30.06,NE,45,0.0,2.0,83,0.00,,,0.00,meteohub,2013-02-10 14:07:00,
2013-02-10 06:12:00,32.9,28.6,30.06,North,0,2.0,2.0,84,0.00,,,0.00,meteohub,2013-02-10 14:12:00,
2013-02-10 06:17:00,32.9,28.6,30.06,North,0,0.0,2.0,84,0.00,,,0.00,meteohub,2013-02-10 14:17:00,
2013-02-10 06:22:00,32.9,28.2,30.06,North,0,0.0,2.0,83,0.00,,,0.00,meteohub,2013-02-10 14:22:00,
2013-02-10 06:27:00,32.9,28.6,30.07,North,0,1.0,2.0,84,0.00,,,0.00,meteohub,2013-02-10 14:27:00,
2013-02-10 06:32:00,32.9,28.6,30.07,North,0,2.0,2.0,84,0.00,,,0.00,meteohub,2013-02-10 14:32:00,
2013-02-10 06:37:00,32.9,28.6,30.07,North,0,0.0,1.0,84,0.00,,,0.00,meteohub,2013-02-10 14:37:00,
2013-02-10 06:42:00,32.7,28.4,30.07,North,0,0.0,2.0,84,0.00,,,0.00,meteohub,2013-02-10 14:42:00,
2013-02-10 06:47:00,32.7,28.4,30.07,North,0,0.0,2.0,84,0.00,,,0.00,meteohub,2013-02-10 14:47:00,
2013-02-10 06:52:00,32.7,28.4,30.07,North,0,0.0,0.0,84,0.00,,,0.00,meteohub,2013-02-10 14:52:00,
2013-02-10 06:57:00,32.7,28.4,30.08,North,0,0.0,0.0,84,0.00,,,0.00,meteohub,2013-02-10 14:57:00,
2013-02-10 07:03:00,32.7,28.4,30.07,North,0,0.0,0.0,84,0.00,,,0.00,meteohub,2013-02-10 15:03:00,
2013-02-10 07:08:00,32.7,28.4,30.07,North,0,0.0,0.0,84,0.00,,,0.00,meteohub,2013-02-10 15:08:00,
2013-02-10 07:13:00,32.7,28.4,30.08,North,0,0.0,0.0,84,0.00,,,0.00,meteohub,2013-02-10 15:13:00,
2013-02-10 07:18:00,32.7,28.8,30.08,North,0,0.0,0.0,85,0.00,,,0.00,meteohub,2013-02-10 15:18:00,
2013-02-10 07:23:00,32.7,28.8,30.07,North,0,0.0,0.0,85,0.00,,,0.00,meteohub,2013-02-10 15:23:00,
2013-02-10 07:28:00,32.9,28.9,30.08,North,0,0.0,0.0,85,0.00,,,0.00,meteohub,2013-02-10 15:28:00,
2013-02-10 07:33:00,32.9,28.9,30.08,North,0,0.0,0.0,85,0.00,,,0.00,meteohub,2013-02-10 15:33:00,
2013-02-10 07:38:00,33.1,29.3,30.08,North,0,0.0,0.0,86,0.00,,,0.00,meteohub,2013-02-10 15:38:00,
2013-02-10 07:43:00,33.6,29.8,30.08,North,0,0.0,0.0,86,0.00,,,0.00,meteohub,2013-02-10 15:43:00,
2013-02-10 07:48:00,33.8,30.4,30.08,North,0,0.0,1.0,87,0.00,,,0.00,meteohub,2013-02-10 15:48:00,
2013-02-10 07:54:00,34.5,31.1,30.08,North,0,2.0,2.0,87,0.00,,,0.00,meteohub,2013-02-10 15:54:00,
2013-02-10 07:59:00,35.1,31.6,30.08,North,0,0.0,2.0,87,0.00,,,0.00,meteohub,2013-02-10 15:59:00,
2013-02-10 08:04:00,35.6,32.2,30.09,North,0,0.0,2.0,87,0.00,,,0.00,meteohub,2013-02-10 16:04:00,
2013-02-10 08:09:00,36.1,32.7,30.08,North,0,3.0,3.0,87,0.00,,,0.00,meteohub,2013-02-10 16:09:00,
2013-02-10 08:14:00,36.5,32.7,30.09,NE,45,4.0,4.0,86,0.00,,,0.00,meteohub,2013-02-10 16:14:00,
2013-02-10 08:19:00,36.5,32.4,30.09,NE,45,3.0,3.0,85,0.00,,,0.00,meteohub,2013-02-10 16:19:00,
2013-02-10 08:24:00,36.5,32.4,30.09,North,0,3.0,4.0,85,0.00,,,0.00,meteohub,2013-02-10 16:24:00,
2013-02-10 08:29:00,36.7,32.4,30.09,NE,45,2.0,4.0,84,0.00,,,0.00,meteohub,2013-02-10 16:29:00,
2013-02-10 08:34:00,36.9,32.5,30.09,North,0,2.0,4.0,84,0.00,,,0.00,meteohub,2013-02-10 16:34:00,
2013-02-10 08:39:00,37.0,32.7,30.09,North,0,2.0,4.0,84,0.00,,,0.00,meteohub,2013-02-10 16:39:00,
2013-02-10 08:45:00,37.4,33.1,30.09,North,0,1.0,4.0,84,0.00,,,0.00,meteohub,2013-02-10 16:45:00,
2013-02-10 08:50:00,38.1,33.8,30.09,North,0,2.0,4.0,84,0.00,,,0.00,meteohub,2013-02-10 16:50:00,
2013-02-10 08:55:00,38.7,34.2,30.09,North,0,2.0,4.0,84,0.00,,,0.00,meteohub,2013-02-10 16:55:00,
2013-02-10 09:00:00,39.7,35.2,30.09,North,0,3.0,4.0,84,0.00,,,0.00,meteohub,2013-02-10 17:00:00,
2013-02-10 09:05:00,40.5,35.8,30.09,North,0,2.0,4.0,83,0.00,,,0.00,meteohub,2013-02-10 17:05:00,
2013-02-10 09:10:00,41.2,36.5,30.09,NE,45,3.0,4.0,83,0.00,,,0.00,meteohub,2013-02-10 17:10:00,
2013-02-10 09:15:00,42.1,37.0,30.09,North,0,3.0,3.0,82,0.00,,,0.00,meteohub,2013-02-10 17:15:00,
2013-02-10 09:20:00,42.8,37.4,30.09,NE,45,2.0,3.0,81,0.00,,,0.00,meteohub,2013-02-10 17:20:00,
2013-02-10 09:25:00,43.5,37.8,30.09,North,0,3.0,4.0,80,0.00,,,0.00,meteohub,2013-02-10 17:25:00,
2013-02-10 09:31:00,44.6,38.1,30.09,West,270,3.0,5.0,78,0.00,,,0.00,meteohub,2013-02-10 17:31:00,
2013-02-10 09:36:00,45.5,38.3,30.09,North,0,4.0,5.0,76,0.00,,,0.00,meteohub,2013-02-10 17:36:00,
2013-02-10 09:41:00,46.6,38.7,30.09,NE,45,6.0,8.0,74,0.00,,,0.00,meteohub,2013-02-10 17:41:00,
2013-02-10 09:46:00,47.3,38.7,30.09,East,90,4.0,8.0,72,0.00,,,0.00,meteohub,2013-02-10 17:46:00,
2013-02-10 09:51:00,48.0,39.0,30.09,NE,45,4.0,6.0,71,0.00,,,0.00,meteohub,2013-02-10 17:51:00,
2013-02-10 09:56:00,48.6,38.8,30.08,NE,45,4.0,7.0,69,0.00,,,0.00,meteohub,2013-02-10 17:56:00,
2013-02-10 10:01:00,49.1,38.7,30.09,NE,45,4.0,7.0,67,0.00,,,0.00,meteohub,2013-02-10 18:01:00,
2013-02-10 10:06:00,49.8,38.1,30.09,North,0,6.0,7.0,64,0.00,,,0.00,meteohub,2013-02-10 18:06:00,
2013-02-10 10:11:00,50.0,38.3,30.08,North,0,4.0,8.0,64,0.00,,,0.00,meteohub,2013-02-10 18:11:00,
2013-02-10 10:16:00,50.4,38.3,30.08,NE,45,4.0,8.0,63,0.00,,,0.00,meteohub,2013-02-10 18:16:00,
2013-02-10 10:22:00,50.5,38.5,30.08,NE,45,4.0,8.0,63,0.00,,,0.00,meteohub,2013-02-10 18:22:00,
2013-02-10 10:27:00,50.9,37.9,30.07,North,0,8.0,9.0,61,0.00,,,0.00,meteohub,2013-02-10 18:27:00,
2013-02-10 10:32:00,51.3,37.8,30.08,NE,45,4.0,9.0,60,0.00,,,0.00,meteohub,2013-02-10 18:32:00,
2013-02-10 10:37:00,51.8,38.3,30.07,NE,45,4.0,8.0,60,0.00,,,0.00,meteohub,2013-02-10 18:37:00,
2013-02-10 10:42:00,52.7,39.2,30.07,NE,45,3.0,8.0,60,0.00,,,0.00,meteohub,2013-02-10 18:42:00,
2013-02-10 10:47:00,53.2,38.8,30.07,NE,45,4.0,8.0,58,0.00,,,0.00,meteohub,2013-02-10 18:47:00,
2013-02-10 10:52:00,53.6,38.7,30.07,NE,45,4.0,5.0,57,0.00,,,0.00,meteohub,2013-02-10 18:52:00,
2013-02-10 10:57:00,54.1,38.8,30.07,NE,45,4.0,6.0,56,0.00,,,0.00,meteohub,2013-02-10 18:57:00,
2013-02-10 11:02:00,54.5,39.2,30.07,East,90,4.0,6.0,56,0.00,,,0.00,meteohub,2013-02-10 19:02:00,
2013-02-10 11:07:00,55.0,39.2,30.07,NE,45,5.0,6.0,55,0.00,,,0.00,meteohub,2013-02-10 19:07:00,
2013-02-10 11:12:00,55.4,39.0,30.06,NE,45,6.0,6.0,54,0.00,,,0.00,meteohub,2013-02-10 19:12:00,
2013-02-10 11:17:00,55.8,39.4,30.06,NE,45,4.0,6.0,54,0.00,,,0.00,meteohub,2013-02-10 19:17:00,
2013-02-10 11:22:00,56.3,38.8,30.06,NE,45,8.0,8.0,52,0.00,,,0.00,meteohub,2013-02-10 19:22:00,
2013-02-10 11:27:00,56.7,38.3,30.06,SE,135,4.0,8.0,50,0.00,,,0.00,meteohub,2013-02-10 19:27:00,
2013-02-10 11:32:00,56.8,37.9,30.06,NE,45,4.0,8.0,49,0.00,,,0.00,meteohub,2013-02-10 19:32:00,
2013-02-10 11:37:00,57.0,37.6,30.05,NE,45,4.0,8.0,48,0.00,,,0.00,meteohub,2013-02-10 19:37:00,
2013-02-10 11:42:00,57.2,37.8,30.04,NE,45,5.0,8.0,48,0.00,,,0.00,meteohub,2013-02-10 19:42:00,
2013-02-10 11:47:00,57.6,37.9,30.04,NE,45,7.0,8.0,48,0.00,,,0.00,meteohub,2013-02-10 19:47:00,
2013-02-10 11:52:00,57.7,37.6,30.04,North,0,7.0,8.0,47,0.00,,,0.00,meteohub,2013-02-10 19:52:00,
2013-02-10 11:57:00,57.9,38.3,30.04,North,0,4.0,11.0,48,0.00,,,0.00,meteohub,2013-02-10 19:57:00,
2013-02-10 12:03:00,58.5,38.3,30.04,North,0,4.0,11.0,47,0.00,,,0.00,meteohub,2013-02-10 20:03:00,
2013-02-10 12:08:00,58.6,37.9,30.03,NE,45,5.0,11.0,46,0.00,,,0.00,meteohub,2013-02-10 20:08:00,
2013-02-10 12:13:00,59.0,38.3,30.03,NE,45,7.0,10.0,46,0.00,,,0.00,meteohub,2013-02-10 20:13:00,
2013-02-10 12:18:00,59.2,37.9,30.02,NE,45,4.0,10.0,45,0.00,,,0.00,meteohub,2013-02-10 20:18:00,
2013-02-10 12:23:00,59.5,38.1,30.02,North,0,8.0,10.0,45,0.00,,,0.00,meteohub,2013-02-10 20:23:00,
2013-02-10 12:28:00,59.7,37.8,30.01,NE,45,6.0,8.0,44,0.00,,,0.00,meteohub,2013-02-10 20:28:00,
2013-02-10 12:33:00,60.1,38.1,30.01,NE,45,4.0,8.0,44,0.00,,,0.00,meteohub,2013-02-10 20:33:00,
2013-02-10 12:38:00,60.6,37.9,30.01,North,0,10.0,10.0,43,0.00,,,0.00,meteohub,2013-02-10 20:38:00,
2013-02-10 12:43:00,60.6,37.4,30.01,ENE,68,5.0,10.0,42,0.00,,,0.00,meteohub,2013-02-10 20:43:00,
2013-02-10 12:48:00,60.8,38.1,30.00,North,0,8.0,10.0,43,0.00,,,0.00,meteohub,2013-02-10 20:48:00,
2013-02-10 12:53:00,61.0,38.3,30.00,North,0,10.0,11.0,43,0.00,,,0.00,meteohub,2013-02-10 20:53:00,
2013-02-10 12:58:00,61.2,37.9,30.00,North,0,5.0,11.0,42,0.00,,,0.00,meteohub,2013-02-10 20:58:00,
2013-02-10 13:04:00,61.3,36.9,30.00,NE,45,15.0,15.0,40,0.00,,,0.00,meteohub,2013-02-10 21:04:00,
2013-02-10 13:09:00,61.5,37.0,29.99,North,0,8.0,15.0,40,0.00,,,0.00,meteohub,2013-02-10 21:09:00,
2013-02-10 13:14:00,61.7,36.5,29.99,North,0,5.0,15.0,39,0.00,,,0.00,meteohub,2013-02-10 21:14:00,
2013-02-10 13:19:00,61.7,35.8,29.99,North,0,9.0,15.0,38,0.00,,,0.00,meteohub,2013-02-10 21:19:00,
2013-02-10 13:24:00,61.9,36.0,29.99,North,0,14.0,14.0,38,0.00,,,0.00,meteohub,2013-02-10 21:24:00,
2013-02-10 13:29:00,61.9,36.0,29.99,NE,45,10.0,15.0,38,0.00,,,0.00,meteohub,2013-02-10 21:29:00,
2013-02-10 13:34:00,62.1,35.4,29.99,NE,45,11.0,15.0,37,0.00,,,0.00,meteohub,2013-02-10 21:34:00,
2013-02-10 13:40:00,61.9,36.7,29.98,North,0,8.0,15.0,39,0.00,,,0.00,meteohub,2013-02-10 21:40:00,
2013-02-10 13:45:00,62.4,35.8,29.98,North,0,9.0,15.0,37,0.00,,,0.00,meteohub,2013-02-10 21:45:00,
2013-02-10 13:50:00,62.6,36.7,29.98,East,90,9.0,15.0,38,0.00,,,0.00,meteohub,2013-02-10 21:50:00,
2013-02-10 13:55:00,62.6,35.2,29.97,NE,45,8.0,11.0,36,0.00,,,0.00,meteohub,2013-02-10 21:55:00,
2013-02-10 14:00:00,62.8,36.1,29.97,NE,45,6.0,11.0,37,0.00,,,0.00,meteohub,2013-02-10 22:00:00,
2013-02-10 14:05:00,63.0,34.9,29.97,North,0,10.0,15.0,35,0.00,,,0.00,meteohub,2013-02-10 22:05:00,
2013-02-10 14:10:00,63.0,34.9,29.96,North,0,8.0,15.0,35,0.00,,,0.00,meteohub,2013-02-10 22:10:00,
2013-02-10 14:15:00,63.0,34.9,29.96,NE,45,11.0,15.0,35,0.00,,,0.00,meteohub,2013-02-10 22:15:00,
2013-02-10 14:20:00,63.0,34.9,29.96,East,90,12.0,15.0,35,0.00,,,0.00,meteohub,2013-02-10 22:20:00,
2013-02-10 14:25:00,63.0,35.6,29.96,North,0,10.0,12.0,36,0.00,,,0.00,meteohub,2013-02-10 22:25:00,
2013-02-10 14:30:00,63.0,34.9,29.96,East,90,15.0,15.0,35,0.00,,,0.00,meteohub,2013-02-10 22:30:00,
2013-02-10 14:35:00,63.1,35.1,29.96,WSW,248,10.0,15.0,35,0.00,,,0.00,meteohub,2013-02-10 22:35:00,
2013-02-10 14:41:00,62.1,34.9,29.96,NE,45,5.0,15.0,36,0.00,,,0.00,meteohub,2013-02-10 22:41:00,
2013-02-10 14:46:00,64.0,35.8,29.96,North,0,11.0,15.0,35,0.00,,,0.00,meteohub,2013-02-10 22:46:00,
2013-02-10 14:51:00,64.4,35.4,29.96,North,0,10.0,12.0,34,0.00,,,0.00,meteohub,2013-02-10 22:51:00,
2013-02-10 14:56:00,64.4,34.0,29.96,NE,45,11.0,11.0,32,0.00,,,0.00,meteohub,2013-02-10 22:56:00,
2013-02-10 15:01:00,64.4,34.0,29.96,NE,45,12.0,13.0,32,0.00,,,0.00,meteohub,2013-02-10 23:01:00,
2013-02-10 15:06:00,64.2,33.8,29.96,North,0,11.0,15.0,32,0.00,,,0.00,meteohub,2013-02-10 23:06:00,
2013-02-10 15:11:00,63.9,34.2,29.97,NE,45,11.0,15.0,33,0.00,,,0.00,meteohub,2013-02-10 23:11:00,
2013-02-10 15:16:00,64.2,33.8,29.97,North,0,11.0,15.0,32,0.00,,,0.00,meteohub,2013-02-10 23:16:00,
2013-02-10 15:21:00,64.2,32.9,29.96,North,0,10.0,12.0,31,0.00,,,0.00,meteohub,2013-02-10 23:21:00,
2013-02-10 15:27:00,64.2,32.2,29.97,East,90,11.0,11.0,30,0.00,,,0.00,meteohub,2013-02-10 23:27:00,
2013-02-10 15:32:00,64.2,32.2,29.97,NE,45,8.0,13.0,30,0.00,,,0.00,meteohub,2013-02-10 23:32:00,
2013-02-10 15:37:00,64.6,33.3,29.96,NE,45,9.0,13.0,31,0.00,,,0.00,meteohub,2013-02-10 23:37:00,
2013-02-10 15:42:00,64.8,32.5,29.97,NE,45,8.0,13.0,30,0.00,,,0.00,meteohub,2013-02-10 23:42:00,
2013-02-10 15:47:00,64.8,31.8,29.97,North,0,8.0,12.0,29,0.00,,,0.00,meteohub,2013-02-10 23:47:00,
2013-02-10 15:52:00,64.8,31.8,29.96,NE,45,8.0,14.0,29,0.00,,,0.00,meteohub,2013-02-10 23:52:00,
2013-02-10 15:57:00,64.8,31.8,29.96,NE,45,7.0,17.0,29,0.00,,,0.00,meteohub,2013-02-10 23:57:00,
2013-02-10 16:02:00,64.8,31.8,29.97,NE,45,8.0,17.0,29,0.00,,,0.00,meteohub,2013-02-11 00:02:00,
2013-02-10 16:07:00,64.6,30.7,29.97,NE,45,8.0,17.0,28,0.00,,,0.00,meteohub,2013-02-11 00:07:00,
2013-02-10 16:12:00,64.4,31.5,29.96,North,0,5.0,11.0,29,0.00,,,0.00,meteohub,2013-02-11 00:12:00,
2013-02-10 16:17:00,64.2,31.3,29.96,North,0,7.0,11.0,29,0.00,,,0.00,meteohub,2013-02-11 00:17:00,
2013-02-10 16:22:00,64.2,31.3,29.96,NE,45,6.0,11.0,29,0.00,,,0.00,meteohub,2013-02-11 00:22:00,
2013-02-10 16:27:00,63.9,30.2,29.96,North,0,8.0,11.0,28,0.00,,,0.00,meteohub,2013-02-11 00:27:00,
2013-02-10 16:32:00,63.5,30.7,29.96,North,0,6.0,10.0,29,0.00,,,0.00,meteohub,2013-02-11 00:32:00,
2013-02-10 16:37:00,63.5,30.7,29.96,NE,45,7.0,12.0,29,0.00,,,0.00,meteohub,2013-02-11 00:37:00,
2013-02-10 16:42:00,63.0,31.1,29.96,NE,45,8.0,12.0,30,0.00,,,0.00,meteohub,2013-02-11 00:42:00,
2013-02-10 16:47:00,62.8,31.6,29.96,North,0,6.0,14.0,31,0.00,,,0.00,meteohub,2013-02-11 00:47:00,
2013-02-10 16:52:00,62.6,31.5,29.96,NE,45,8.0,14.0,31,0.00,,,0.00,meteohub,2013-02-11 00:52:00,
2013-02-10 16:57:00,62.4,31.5,29.96,East,90,6.0,14.0,31,0.00,,,0.00,meteohub,2013-02-11 00:57:00,
2013-02-10 17:02:00,62.2,31.3,29.96,North,0,7.0,8.0,31,0.00,,,0.00,meteohub,2013-02-11 01:02:00,
2013-02-10 17:07:00,62.1,31.1,29.96,NE,45,5.0,9.0,31,0.00,,,0.00,meteohub,2013-02-11 01:07:00,
2013-02-10 17:12:00,61.7,31.5,29.96,NE,45,5.0,9.0,32,0.00,,,0.00,meteohub,2013-02-11 01:12:00,
2013-02-10 17:17:00,61.5,31.5,29.96,East,90,8.0,9.0,32,0.00,,,0.00,meteohub,2013-02-11 01:17:00,
2013-02-10 17:22:00,61.2,31.1,29.96,North,0,6.0,8.0,32,0.00,,,0.00,meteohub,2013-02-11 01:22:00,
2013-02-10 17:27:00,61.0,31.6,29.96,NE,45,4.0,8.0,33,0.00,,,0.00,meteohub,2013-02-11 01:27:00,
2013-02-10 17:32:00,60.6,31.3,29.96,NE,45,6.0,8.0,33,0.00,,,0.00,meteohub,2013-02-11 01:32:00,
2013-02-10 17:37:00,60.6,31.3,29.96,SW,225,5.0,6.0,33,0.00,,,0.00,meteohub,2013-02-11 01:37:00,
2013-02-10 17:42:00,59.9,30.7,29.96,North,0,4.0,6.0,33,0.00,,,0.00,meteohub,2013-02-11 01:42:00,
2013-02-10 17:47:00,59.5,31.1,29.96,NE,45,4.0,7.0,34,0.00,,,0.00,meteohub,2013-02-11 01:47:00,
2013-02-10 17:52:00,59.2,31.5,29.96,North,0,4.0,7.0,35,0.00,,,0.00,meteohub,2013-02-11 01:52:00,
2013-02-10 17:57:00,58.6,31.1,29.96,North,0,4.0,7.0,35,0.00,,,0.00,meteohub,2013-02-11 01:57:00,
2013-02-10 18:02:00,58.3,30.7,29.96,North,0,3.0,5.0,35,0.00,,,0.00,meteohub,2013-02-11 02:02:00,
2013-02-10 18:07:00,58.1,30.6,29.96,East,90,3.0,8.0,35,0.00,,,0.00,meteohub,2013-02-11 02:07:00,
2013-02-10 18:12:00,57.7,30.2,29.97,WSW,248,5.0,8.0,35,0.00,,,0.00,meteohub,2013-02-11 02:12:00,
2013-02-10 18:17:00,57.4,30.0,29.97,North,0,3.0,8.0,35,0.00,,,0.00,meteohub,2013-02-11 02:17:00,
2013-02-10 18:22:00,57.0,30.4,29.97,North,0,2.0,5.0,36,0.00,,,0.00,meteohub,2013-02-11 02:22:00,
2013-02-10 18:27:00,56.7,30.0,29.98,North,0,3.0,5.0,36,0.00,,,0.00,meteohub,2013-02-11 02:27:00,
2013-02-10 18:32:00,56.3,29.7,29.97,North,0,3.0,4.0,36,0.00,,,0.00,meteohub,2013-02-11 02:32:00,
2013-02-10 18:37:00,56.3,29.7,29.98,North,0,3.0,4.0,36,0.00,,,0.00,meteohub,2013-02-11 02:37:00,
2013-02-10 18:42:00,55.9,29.3,29.97,North,0,3.0,4.0,36,0.00,,,0.00,meteohub,2013-02-11 02:42:00,
2013-02-10 18:47:00,55.9,29.3,29.97,NE,45,4.0,4.0,36,0.00,,,0.00,meteohub,2013-02-11 02:47:00,
2013-02-10 18:52:00,55.8,29.1,29.98,NE,45,3.0,4.0,36,0.00,,,0.00,meteohub,2013-02-11 02:52:00,
2013-02-10 18:57:00,55.8,29.1,29.97,NE,45,3.0,4.0,36,0.00,,,0.00,meteohub,2013-02-11 02:57:00,
2013-02-10 19:02:00,55.6,29.1,29.97,NE,45,3.0,4.0,36,0.00,,,0.00,meteohub,2013-02-11 03:02:00,
2013-02-10 19:07:00,55.6,29.1,29.97,NE,45,3.0,4.0,36,0.00,,,0.00,meteohub,2013-02-11 03:07:00,
2013-02-10 19:12:00,54.9,28.4,29.97,East,90,3.0,4.0,36,0.00,,,0.00,meteohub,2013-02-11 03:12:00,
2013-02-10 19:17:00,54.7,28.2,29.98,NE,45,2.0,3.0,36,0.00,,,0.00,meteohub,2013-02-11 03:17:00,
2013-02-10 19:22:00,54.5,28.0,29.97,NE,45,2.0,3.0,36,0.00,,,0.00,meteohub,2013-02-11 03:22:00,
2013-02-10 19:27:00,54.5,28.0,29.98,NE,45,2.0,3.0,36,0.00,,,0.00,meteohub,2013-02-11 03:27:00,
2013-02-10 19:32:00,54.3,28.6,29.97,NE,45,2.0,4.0,37,0.00,,,0.00,meteohub,2013-02-11 03:32:00,
2013-02-10 19:37:00,54.1,28.4,29.97,North,0,2.0,4.0,37,0.00,,,0.00,meteohub,2013-02-11 03:37:00,
2013-02-10 19:42:00,54.0,28.2,29.97,NE,45,3.0,4.0,37,0.00,,,0.00,meteohub,2013-02-11 03:42:00,
2013-02-10 19:47:00,54.0,28.2,29.98,North,0,3.0,4.0,37,0.00,,,0.00,meteohub,2013-02-11 03:47:00,
2013-02-10 19:52:00,53.8,28.0,29.98,North,0,2.0,4.0,37,0.00,,,0.00,meteohub,2013-02-11 03:52:00,
2013-02-10 19:57:00,53.4,28.4,29.98,North,0,2.0,4.0,38,0.00,,,0.00,meteohub,2013-02-11 03:57:00,
2013-02-10 20:02:00,53.2,28.2,29.98,North,0,3.0,4.0,38,0.00,,,0.00,meteohub,2013-02-11 04:02:00,
2013-02-10 20:07:00,53.2,28.2,29.98,North,0,3.0,4.0,38,0.00,,,0.00,meteohub,2013-02-11 04:07:00,
2013-02-10 20:12:00,53.1,28.8,29.98,North,0,2.0,3.0,39,0.00,,,0.00,meteohub,2013-02-11 04:12:00,
2013-02-10 20:17:00,53.1,28.8,29.99,North,0,4.0,4.0,39,0.00,,,0.00,meteohub,2013-02-11 04:17:00,
2013-02-10 20:22:00,53.1,28.8,29.98,North,0,2.0,4.0,39,0.00,,,0.00,meteohub,2013-02-11 04:22:00,
2013-02-10 20:27:00,52.9,28.6,29.99,North,0,4.0,4.0,39,0.00,,,0.00,meteohub,2013-02-11 04:27:00,
2013-02-10 20:32:00,52.9,29.3,29.99,North,0,4.0,4.0,40,0.00,,,0.00,meteohub,2013-02-11 04:32:00,
2013-02-10 20:37:00,52.9,29.3,29.99,North,0,4.0,4.0,40,0.00,,,0.00,meteohub,2013-02-11 04:37:00,
2013-02-10 20:42:00,52.9,29.3,29.99,East,90,4.0,4.0,40,0.00,,,0.00,meteohub,2013-02-11 04:42:00,
2013-02-10 20:47:00,52.9,29.3,29.99,North,0,5.0,5.0,40,0.00,,,0.00,meteohub,2013-02-11 04:47:00,
2013-02-10 20:52:00,52.9,29.8,29.99,North,0,4.0,8.0,41,0.00,,,0.00,meteohub,2013-02-11 04:52:00,
2013-02-10 20:57:00,52.9,30.4,29.99,NE,45,7.0,8.0,42,0.00,,,0.00,meteohub,2013-02-11 04:57:00,
2013-02-10 21:00:00,52.7,30.2,29.99,North,0,3.0,8.0,42,0.00,,,0.00,meteohub,2013-02-11 05:00:00,
2013-02-10 21:01:00,52.7,30.2,29.99,North,0,3.0,8.0,42,0.00,,,0.00,meteohub,2013-02-11 05:01:00,
2013-02-10 21:06:00,52.7,30.2,30.00,North,0,3.0,8.0,42,0.00,,,0.00,meteohub,2013-02-11 05:06:00,
2013-02-10 21:11:00,52.2,30.9,30.00,NE,45,5.0,8.0,44,0.00,,,0.00,meteohub,2013-02-11 05:11:00,
2013-02-10 21:16:00,52.0,30.7,30.00,North,0,4.0,5.0,44,0.00,,,0.00,meteohub,2013-02-11 05:16:00,
2013-02-10 21:21:00,52.0,31.3,30.01,North,0,5.0,5.0,45,0.00,,,0.00,meteohub,2013-02-11 05:21:00,
2013-02-10 21:26:00,51.8,31.1,30.01,NE,45,3.0,5.0,45,0.00,,,0.00,meteohub,2013-02-11 05:26:00,
2013-02-10 21:32:00,51.6,31.5,30.01,North,0,4.0,5.0,46,0.00,,,0.00,meteohub,2013-02-11 05:32:00,
2013-02-10 21:37:00,51.4,31.3,30.01,East,90,6.0,7.0,46,0.00,,,0.00,meteohub,2013-02-11 05:37:00,
2013-02-10 21:42:00,51.1,31.1,30.01,NE,45,4.0,8.0,46,0.00,,,0.00,meteohub,2013-02-11 05:42:00,
2013-02-10 21:47:00,50.9,30.9,30.00,NE,45,4.0,8.0,46,0.00,,,0.00,meteohub,2013-02-11 05:47:00,
2013-02-10 21:52:00,50.5,31.1,30.00,North,0,4.0,6.0,47,0.00,,,0.00,meteohub,2013-02-11 05:52:00,
2013-02-10 21:57:00,50.4,30.9,30.00,North,0,4.0,6.0,47,0.00,,,0.00,meteohub,2013-02-11 05:57:00,
2013-02-10 22:02:00,50.4,31.5,30.00,WSW,248,4.0,6.0,48,0.00,,,0.00,meteohub,2013-02-11 06:02:00,
2013-02-10 22:07:00,50.4,31.5,30.00,WSW,248,4.0,6.0,48,0.00,,,0.00,meteohub,2013-02-11 06:07:00,
2013-02-10 22:12:00,50.2,31.3,30.00,North,0,6.0,6.0,48,0.00,,,0.00,meteohub,2013-02-11 06:12:00,
2013-02-10 22:17:00,50.2,31.3,30.01,North,0,4.0,6.0,48,0.00,,,0.00,meteohub,2013-02-11 06:17:00,
2013-02-10 22:22:00,50.2,31.3,30.01,NE,45,5.0,6.0,48,0.00,,,0.00,meteohub,2013-02-11 06:22:00,
2013-02-10 22:27:00,50.4,30.9,30.01,NE,45,6.0,6.0,47,0.00,,,0.00,meteohub,2013-02-11 06:27:00,
2013-02-10 22:32:00,50.4,30.9,30.01,NE,45,5.0,6.0,47,0.00,,,0.00,meteohub,2013-02-11 06:32:00,
2013-02-10 22:37:00,50.4,30.4,30.01,North,0,4.0,8.0,46,0.00,,,0.00,meteohub,2013-02-11 06:37:00,
2013-02-10 22:42:00,50.4,30.4,30.01,North,0,3.0,8.0,46,0.00,,,0.00,meteohub,2013-02-11 06:42:00,
2013-02-10 22:47:00,50.2,30.2,30.01,NE,45,3.0,6.0,46,0.00,,,0.00,meteohub,2013-02-11 06:47:00,
2013-02-10 22:52:00,50.0,30.0,30.01,North,0,2.0,6.0,46,0.00,,,0.00,meteohub,2013-02-11 06:52:00,
2013-02-10 22:57:00,50.0,30.0,30.01,NE,45,4.0,4.0,46,0.00,,,0.00,meteohub,2013-02-11 06:57:00,
2013-02-10 23:02:00,50.0,30.0,30.01,North,0,3.0,4.0,46,0.00,,,0.00,meteohub,2013-02-11 07:02:00,
2013-02-10 23:07:00,49.8,29.8,30.01,North,0,3.0,4.0,46,0.00,,,0.00,meteohub,2013-02-11 07:07:00,
2013-02-10 23:13:00,49.8,29.3,30.01,NE,45,3.0,4.0,45,0.00,,,0.00,meteohub,2013-02-11 07:13:00,
2013-02-10 23:18:00,49.8,29.3,30.01,North,0,3.0,4.0,45,0.00,,,0.00,meteohub,2013-02-11 07:18:00,
2013-02-10 23:23:00,49.8,28.8,30.01,NE,45,4.0,5.0,44,0.00,,,0.00,meteohub,2013-02-11 07:23:00,
2013-02-10 23:28:00,49.8,28.8,30.01,NE,45,3.0,5.0,44,0.00,,,0.00,meteohub,2013-02-11 07:28:00,
2013-02-10 23:33:00,49.8,28.8,30.01,NE,45,2.0,5.0,44,0.00,,,0.00,meteohub,2013-02-11 07:33:00,
2013-02-10 23:38:00,49.5,28.4,30.01,NW,315,3.0,4.0,44,0.00,,,0.00,meteohub,2013-02-11 07:38:00,
2013-02-10 23:43:00,49.3,28.2,30.02,NE,45,2.0,4.0,44,0.00,,,0.00,meteohub,2013-02-11 07:43:00,
2013-02-10 23:48:00,49.1,28.0,30.02,NE,45,3.0,4.0,44,0.00,,,0.00,meteohub,2013-02-11 07:48:00,
2013-02-10 23:53:00,49.1,27.5,30.02,East,90,3.0,4.0,43,0.00,,,0.00,meteohub,2013-02-11 07:53:00,
2013-02-10 23:58:00,48.9,27.3,30.02,North,0,3.0,4.0,43,0.00,,,0.00,meteohub,2013-02-11 07:58:00,